Location: Middelsbur
(53.6609°N, 7.5020°E)
Time: 13:13:50
(UTC+00:00)

Cosmos 2278 Rocket - Pass Details

Date: 06 July 2020
Orbit: 841 x 846 km, 71.0° (Epoch: 06 August)

Event Time Altitude Azimuth Distance (km) Brightness Sun altitude
Rises 22:28:39 0° 323° (NW) 3,418 6.8 -12.4°
Reaches altitude 10° 22:31:23 10° 313° (NW) 2,477 5.6 -12.5°
Maximum altitude 22:36:12 29° 255° (WSW) 1,498 3.5 -12.7°
Enters shadow 22:40:26 12° 200° (SSW) 2,287 4.0 -12.9°
